Simultaneous Nadir Overpasses (SNOs) Predictions

Prediction of SNOs between METOP-B and TERRA Satellite Orbit:

Table of predicted SNOs for the next 14.0 days since TLE Epoch: 2/13/2021
Index Date (METOP-B) Time (METOP-B) Lat,Lon (METOP-B) SZA (METOP-B ) Date (TERRA) Time (TERRA) Lat,Lon (TERRA) SZA (TERRA ) Distance(km) Time Diff (sec)
1 02/15/2021 19:50:33 81.30, -71.19 95.93 02/15/2021 19:50:57 81.30, -71.06 95.95 2.33 24
2 02/15/2021 20:41:13 -81.31, 96.67 84.03 02/15/2021 20:40:24 -81.30, 96.50 84.08 3.12 49
3 02/18/2021 15:24:53 81.30, -4.61 94.97 02/18/2021 15:25:09 81.30, -4.70 94.96 1.63 16
4 02/18/2021 16:15:33 -81.31, 163.29 84.99 02/18/2021 16:14:35 -81.31, 163.27 85.01 0.62 58
5 02/21/2021 10:59:14 81.30, 61.96 93.99 02/21/2021 10:59:21 81.31, 62.00 94.00 0.98 7
6 02/21/2021 11:49:55 -81.31,-130.51 86.01 02/21/2021 11:48:48 -81.31,-130.38 86.02 2.08 67
7 02/24/2021 05:42:56 -81.30, -39.20 87.05 02/24/2021 05:44:08 -81.30, -39.36 87.03 2.65 72
8 02/24/2021 06:33:36 81.30, 128.13 92.94 02/24/2021 06:33:34 81.30, 128.29 92.96 2.67 2
9 02/27/2021 01:17:18 -81.30, 26.97 88.11 02/27/2021 01:18:21 -81.29, 26.91 88.09 0.97 63



Historial Predications of SNOs between METOP-B and TERRA
